Voltar ao catálogo

ARIANE 5 DEB

SYLDA

AtivoHEO
NORAD 54744·DEBRIS·🇫🇷 France

Lançado Dec 13, 2022 de Guiana Space Centre

Loading…

Próximas Passagens (próximas 24 horas)

TLE

AtualizadoSource: Space-Track

Época: Sep 14, 2026, 08:47 UTC

1 54744U 22170D   26257.36659440  .00393232 -61470-6  46143-2 0  9992
2 54744   6.2752 134.4111 4849581 320.1121  12.8098  6.03180415 54333

Acompanhe ARIANE 5 DEB em tempo real com AllMySat

Download on the App Store